Time,TemperatureF,DewpointF,PressureIn,WindDirection,WindDirectionDegrees,WindSpeedMPH,WindSpeedGustMPH,Humidity,HourlyPrecipIn,Conditions,Clouds,dailyrainin,SoftwareType,DateUTC
2013-08-24 00:43:00,87.0,60.0,32.40,North,0,0.0,-999.0,41,0.00,,,-99.99,,2013-08-24 07:43:00,
2013-08-24 00:53:00,87.0,60.0,32.40,North,0,0.0,-999.0,41,0.00,,,-99.99,,2013-08-24 07:53:00,
2013-08-24 01:52:00,85.0,62.0,32.40,North,0,0.0,-999.0,46,0.00,,,-99.99,,2013-08-24 08:52:00,
2013-08-24 03:42:00,83.0,59.0,31.57,North,0,0.0,-999.0,44,0.00,,,-99.99,,2013-08-24 10:42:00,
2013-08-24 03:53:00,83.0,59.0,31.57,North,0,0.0,-999.0,44,0.00,,,-99.99,,2013-08-24 10:53:00,
2013-08-24 04:42:00,82.0,58.0,32.27,North,0,0.0,-999.0,44,0.00,,,-99.99,,2013-08-24 11:42:00,
2013-08-24 04:52:00,82.0,58.0,32.27,North,0,0.0,-999.0,44,0.00,,,-99.99,,2013-08-24 11:52:00,
2013-08-24 06:42:00,80.0,55.0,31.81,North,0,0.0,-999.0,42,0.00,,,-99.99,,2013-08-24 13:42:00,
2013-08-24 06:52:00,80.0,55.0,31.81,North,0,0.0,-999.0,42,0.00,,,-99.99,,2013-08-24 13:52:00,
2013-08-24 07:42:00,80.0,55.0,32.38,North,0,0.0,-999.0,43,0.00,,,-99.99,,2013-08-24 14:42:00,
2013-08-24 07:52:00,80.0,55.0,32.38,North,0,0.0,-999.0,43,0.00,,,-99.99,,2013-08-24 14:52:00,
2013-08-24 08:54:00,84.0,56.0,32.38,North,0,0.0,-999.0,39,0.00,,,-99.99,,2013-08-24 15:54:00,
2013-08-24 09:42:00,90.0,66.0,26.63,NE,50,1.0,-999.0,45,0.00,,,-99.99,,2013-08-24 16:42:00,
2013-08-24 09:53:00,90.0,66.0,26.63,NE,50,1.0,-999.0,45,0.00,,,-99.99,,2013-08-24 16:53:00,
2013-08-24 10:42:00,92.0,76.0,26.63,North,0,0.0,-999.0,59,0.00,,,-99.99,,2013-08-24 17:42:00,
2013-08-24 10:52:00,92.0,76.0,26.63,North,0,0.0,-999.0,59,0.00,,,-99.99,,2013-08-24 17:52:00,
2013-08-24 11:42:00,95.0,75.0,27.39,East,80,1.0,-999.0,53,0.00,,,-99.99,,2013-08-24 18:42:00,
2013-08-24 11:53:00,95.0,75.0,27.39,East,80,1.0,-999.0,53,0.00,,,-99.99,,2013-08-24 18:53:00,
2013-08-24 12:42:00,96.0,72.0,26.84,North,0,0.0,-999.0,47,0.00,,,-99.99,,2013-08-24 19:42:00,
2013-08-24 12:52:00,96.0,72.0,26.84,North,0,0.0,-999.0,47,0.00,,,-99.99,,2013-08-24 19:52:00,
2013-08-24 13:22:00,99.0,72.0,27.08,North,0,0.0,-999.0,42,0.00,,,-99.99,,2013-08-24 20:22:00,
2013-08-24 13:32:00,99.0,72.0,27.08,North,0,0.0,-999.0,42,0.00,,,-99.99,,2013-08-24 20:32:00,
2013-08-24 13:42:00,99.0,72.0,27.08,North,0,0.0,-999.0,42,0.00,,,-99.99,,2013-08-24 20:42:00,
2013-08-24 13:52:00,99.0,72.0,27.08,North,0,0.0,-999.0,42,0.00,,,-99.99,,2013-08-24 20:52:00,
2013-08-24 14:43:00,97.0,73.0,27.10,South,170,3.0,-999.0,46,0.00,,,-99.99,,2013-08-24 21:43:00,
2013-08-24 14:54:00,97.0,73.0,27.10,South,170,3.0,-999.0,46,0.00,,,-99.99,,2013-08-24 21:54:00,
2013-08-24 15:23:00,97.0,71.0,27.10,SSE,160,6.0,-999.0,43,0.00,,,-99.99,,2013-08-24 22:23:00,
2013-08-24 15:33:00,97.0,71.0,27.10,SSE,160,6.0,-999.0,43,0.00,,,-99.99,,2013-08-24 22:33:00,
2013-08-24 15:43:00,97.0,71.0,27.10,SSE,160,6.0,-999.0,43,0.00,,,-99.99,,2013-08-24 22:43:00,
2013-08-24 15:53:00,97.0,71.0,27.10,SSE,160,6.0,-999.0,43,0.00,,,-99.99,,2013-08-24 22:53:00,
2013-08-24 16:42:00,87.0,73.0,25.34,North,0,0.0,-999.0,64,0.00,,,-99.99,,2013-08-24 23:42:00,
2013-08-24 16:53:00,87.0,73.0,25.34,North,0,0.0,-999.0,64,0.00,,,-99.99,,2013-08-24 23:53:00,
2013-08-24 17:22:00,90.0,65.0,25.34,North,0,0.0,-999.0,44,0.00,,,-99.99,,2013-08-25 00:22:00,
2013-08-24 17:32:00,90.0,65.0,25.34,North,0,0.0,-999.0,44,0.00,,,-99.99,,2013-08-25 00:32:00,
2013-08-24 17:42:00,90.0,65.0,25.34,North,0,0.0,-999.0,44,0.00,,,-99.99,,2013-08-25 00:42:00,
2013-08-24 17:52:00,90.0,65.0,25.34,North,0,0.0,-999.0,44,0.00,,,-99.99,,2013-08-25 00:52:00,
2013-08-24 18:42:00,88.0,67.0,25.34,North,0,0.0,-999.0,50,0.00,,,-99.99,,2013-08-25 01:42:00,
2013-08-24 18:52:00,88.0,67.0,25.34,North,0,0.0,-999.0,50,0.00,,,-99.99,,2013-08-25 01:52:00,
2013-08-24 19:42:00,83.0,68.0,31.99,ESE,120,5.0,-999.0,61,0.00,,,-99.99,,2013-08-25 02:42:00,
2013-08-24 19:52:00,83.0,68.0,31.99,ESE,120,5.0,-999.0,61,0.00,,,-99.99,,2013-08-25 02:52:00,
2013-08-24 20:44:00,81.0,69.0,31.99,North,0,0.0,-999.0,66,0.02,,,-99.99,,2013-08-25 03:44:00,
2013-08-24 20:54:00,81.0,69.0,31.99,North,0,0.0,-999.0,66,0.02,,,-99.99,,2013-08-25 03:54:00,
2013-08-24 21:43:00,82.0,69.0,32.14,North,0,0.0,-999.0,66,0.01,,,-99.99,,2013-08-25 04:43:00,
2013-08-24 21:54:00,82.0,69.0,32.14,North,0,0.0,-999.0,66,0.01,,,-99.99,,2013-08-25 04:54:00,
2013-08-24 22:42:00,80.0,69.0,32.16,North,0,0.0,-999.0,69,0.02,,,-99.99,,2013-08-25 05:42:00,
2013-08-24 22:52:00,80.0,69.0,32.16,North,0,0.0,-999.0,69,0.02,,,-99.99,,2013-08-25 05:52:00,
2013-08-24 23:43:00,80.0,70.0,32.40,North,0,0.0,-999.0,71,0.01,,,-99.99,,2013-08-25 06:43:00,
2013-08-24 23:52:00,80.0,70.0,32.40,North,0,0.0,-999.0,71,0.01,,,-99.99,,2013-08-25 06:52:00,